[[{"header":{"parameterUnit":"m.s-1","parameterCategory":1,"la1":30.2991,"la2":30.254,"lo1":-89.0895,"lo2":-89.0444,"dy":0.0017,"dx":0.0017,"nx":28,"ny":28,"refTime":"2024-02-27T03:00:00:Z","depth":0,"parameterNumber":2,"parameterNumberName":"U-component_of_WINDS"},"data":[0,0,0,0,0,0,0,0,0,0,0,0,0,0,0,0,0,0,0,0,0,0,0,0,0,0,0,0,0,0,0,0,0,0,0,0,0,0,0,0,0,0,0,0,0,0,0,0,0,0,0,0,0,0,0,0,0,0,0.9382,0.9381,0,0.9267,0.9265,0.9264,0.9173,0.9172,0.9171,0.9171,0.9053,0.905,0.9048,0,0,0,0,0,0,0,0,0,0,0,0,0,0.9523,0.952,0.9382,0.9381,0.9379,0.9267,0.9265,0.9264,0.9173,0.9172,0.9171,0.917,0.9053,0.9051,0.9048,0,0,0,0,0,0,0,0,0,0,0,0,0,0.944,0.952,0.9382,0.9321,0.9314,0.9267,0.9265,0.9263,0.9174,0.9172,0.9171,0.917,0.9054,0.9051,0.9047,0.9053,0,0,0.9037,0.9035,0,0,0,0,0,0,0,0,0.9445,0.9435,0.9331,0.9325,0.9317,0.9233,0.9271,0.9193,0.9174,0.9227,0.9171,0.9169,0.9114,0.9105,0.9087,0.9047,0.9042,0.9037,0.9034,0.9033,0.9032,0,0,0,0,0,0,0,0.9451,0.9439,0.9336,0.933,0.9321,0.9298,0.9285,0.9256,0.9179,0.9222,0.9215,0.9203,0.911,0.909,0.9083,0.904,0.9037,0.9034,0.9031,0.903,0.8999,0.9,0,0,0,0,0,0,0.9466,0.9445,0.934,0.9333,0.9379,0.9297,0.9282,0.9261,0.9179,0.9165,0.9204,0.9199,0.9097,0.9087,0.9079,0.9079,0.9033,0.903,0.9028,0.8997,0.8999,0.9,0,0,0,0,0,0,0.9469,0.9458,0.9345,0.9387,0.9371,0.9296,0.9273,0.926,0.924,0.9166,0.9151,0.9199,0.9095,0.9083,0.906,0.9074,0.9028,0.9025,0.8996,0.8998,0.8999,0.9081,0,0,0,0,0,0,0.9474,0.9459,0.9461,0.9388,0.9369,0.9329,0.9274,0.9259,0.9235,0.9227,0.9157,0.9144,0.9093,0.9065,0.9056,0.9068,0.9022,0.8994,0.8997,0.8999,0.9077,0.9086,0.9093,0,0,0,0,0,0.9479,0.9489,0.9462,0.945,0.937,0.933,0.9319,0.9261,0.9236,0.9237,0.9189,0.9146,0.9073,0.9064,0.9053,0.9064,0.8993,0.8996,0.8999,0.9073,0.9084,0.9093,0,0,0,0,0,0,0.9566,0.9478,0.9447,0.9433,0.939,0.9314,0.9314,0.9274,0.9236,0.9231,0.916,0.9145,0.9129,0.9093,0.9084,0.9064,0.9028,0.9028,0.9088,0.9098,0.9106,0.9115,0.9019,0,0,0,0,0,0.9584,0.9559,0.9483,0.9478,0.9458,0.939,0.937,0.9329,0.9281,0.9262,0.9212,0.9167,0.9133,0.9113,0.9079,0.9071,0.9054,0.9073,0.9081,0.9088,0.909,0.9082,0.909,0.9009,0.9009,0.9009,0,0,0.962,0.9569,0.9558,0.9494,0.9456,0.9431,0.9375,0.9351,0.9332,0.9258,0.9233,0.9194,0.9139,0.9123,0.9114,0.9093,0.9108,0.9091,0.9098,0.9095,0.9086,0.9094,0.9101,0.9011,0.9011,0.9011,0,0,0.9674,0.9632,0.9624,0.9586,0.9528,0.9482,0.948,0.941,0.9382,0.9355,0.9299,0.9274,0.9219,0.9182,0.9156,0.9193,0.9152,0.9184,0.9227,0.922,0.9227,0.9232,0.9246,0.9251,0.9186,0.9186,0.9186,0,0.9726,0.9688,0.9624,0.9604,0.9578,0.9509,0.9499,0.9465,0.9399,0.9382,0.936,0.9288,0.9246,0.922,0.923,0.921,0.9206,0.9192,0.9231,0.9235,0.9239,0.9252,0.9257,0.919,0.919,0.9189,0.9189,0,0.9755,0.9729,0.9729,0.9666,0.964,0.9625,0.9559,0.954,0.95,0.9457,0.943,0.9376,0.9329,0.932,0.9281,0.9288,0.9277,0.9244,0.9206,0.9253,0.9263,0.9267,0.9196,0.9195,0.9193,0.9192,0,0,0.9863,0.9764,0.9765,0.9736,0.9666,0.9644,0.9626,0.958,0.9564,0.952,0.9503,0.9457,0.9425,0.9395,0.9351,0.9346,0.9379,0.9312,0.931,0.9327,0.9383,0.941,0.9417,0.9351,0.9351,0.9352,0.9388,0,0.9906,0.987,0.9812,0.9794,0.9769,0.9702,0.9686,0.9641,0.9599,0.9571,0.9524,0.9493,0.9453,0.9435,0.9426,0.9377,0.939,0.9373,0.9334,0.9334,0.9352,0.9422,0.945,0.9487,0.9392,0.9392,0.9393,0,0.9952,0.9912,0.9893,0.9824,0.9811,0.9797,0.975,0.9724,0.9671,0.9641,0.9607,0.9559,0.9535,0.95,0.9466,0.9456,0.9436,0.9409,0.9409,0.9405,0.9367,0.942,0.9497,0.9504,0.9399,0.9398,0.9398,0,1.0034,0.9974,0.9955,0.9932,0.985,0.9843,0.9808,0.9754,0.9729,0.9687,0.9671,0.9627,0.9603,0.957,0.9511,0.949,0.9483,0.9443,0.9457,0.9459,0.9461,0.9462,0.9537,0.9446,0.9446,0.9446,0.9446,0,1.0089,1.008,0.999,0.9979,0.9966,0.9898,0.9887,0.9846,0.9798,0.9777,0.9715,0.9696,0.9619,0.9591,0.9544,0.9523,0.9512,0.9487,0.9475,0.9494,0.9497,0.9481,0.9477,0.9447,0.9447,0.9447,0.9446,0,1.0179,1.0119,1.0093,1.0018,0.9998,0.9992,0.9927,0.9913,0.9867,0.984,0.983,0.9758,0.9721,0.9658,0.9604,0.9572,0.9561,0.9539,0.9579,0.9572,0.959,0.959,0.9659,0.9665,0.957,0.9571,0.9572,0,1.0219,1.0211,1.0134,1.0116,1.0084,1.0054,1.0029,0.9961,0.9937,0.9875,0.9868,0.9827,0.979,0.9734,0.9677,0.9634,0.9612,0.9639,0.9605,0.9624,0.9613,0.9615,0.9614,0.9648,0.9649,0.965,0.9651,0,1.0297,1.0267,1.0234,1.0189,1.0161,1.0122,1.0081,1.0069,0.9991,0.9967,0.9929,0.9901,0.9844,0.9804,0.9752,0.9716,0.9671,0.9662,0.9663,0.9682,0.9706,0.9694,0.9601,0.9661,0.966,0.9659,0.9659,0.9658,1.0364,1.0353,1.0297,1.0261,1.0223,1.0185,1.0168,1.0119,1.0086,1.0035,0.9996,0.9961,0.9906,0.9833,0.9799,0.977,0.9749,0.9751,0.9752,0.9754,0.9761,0.971,0.976,0.976,0.9759,0.9759,0.9759,0,1.0439,1.04,1.0367,1.0311,1.0283,1.0242,1.0193,1.0172,1.0142,1.0094,1.0059,1.0015,0.9975,0.9913,0.9868,0.9857,0.9835,0.9847,0.9848,0.984,0.9782,0.9786,0.9866,0.9866,0.9866,0.9866,0.9866,0.9866,1.0475,1.0455,1.0418,1.0377,1.0337,1.0302,1.0278,1.0242,1.0204,1.0158,1.0124,1.0084,1.0031,0.9981,0.9942,0.9925,0.9912,0.9931,0.9907,0.9854,0.9844,0.9835,0.9838,0.9928,0.9928,0.9968,0.9969,0.9969]},{"header":{"parameterUnit":"m.s-1","parameterCategory":1,"la1":30.2991,"la2":30.254,"lo1":-89.0895,"lo2":-89.0444,"dy":0.0017,"dx":0.0017,"nx":28,"ny":28,"refTime":"2024-02-27T03:00:00:Z","depth":0,"parameterNumber":3,"parameterNumberName":"V-component_of_WINDS"},"data":[0,0,0,0,0,0,0,0,0,0,0,0,0,0,0,0,0,0,0,0,0,0,0,0,0,0,0,0,0,0,0,0,0,0,0,0,0,0,0,0,0,0,0,0,0,0,0,0,0,0,0,0,0,0,0,0,0,0,4.0569,4.0568,0,4.0473,4.0472,4.0471,4.0422,4.0422,4.0422,4.0422,4.0327,4.0324,4.0322,0,0,0,0,0,0,0,0,0,0,0,0,0,4.0712,4.0709,4.0569,4.0568,4.0567,4.0474,4.0472,4.0471,4.0422,4.0422,4.0422,4.0422,4.0328,4.0325,4.0322,0,0,0,0,0,0,0,0,0,0,0,0,0,4.0636,4.0708,4.0569,4.0531,4.0527,4.0474,4.0472,4.0471,4.0422,4.0422,4.0422,4.0422,4.0329,4.0325,4.0321,4.03,0,0,4.031,4.0308,0,0,0,0,0,0,0,0,4.0641,4.0631,4.0538,4.0534,4.0529,4.046,4.0488,4.0414,4.0422,4.0462,4.0422,4.0422,4.0371,4.0364,4.0346,4.0296,4.0292,4.031,4.0307,4.0306,4.0305,0,0,0,0,0,0,0,4.0646,4.0635,4.0531,4.0537,4.0531,4.0519,4.0509,4.0473,4.0418,4.0459,4.0455,4.0444,4.0369,4.035,4.0344,4.029,4.031,4.0306,4.0304,4.0303,4.0218,4.0218,0,0,0,0,0,0,4.0657,4.064,4.0534,4.0528,4.0586,4.0517,4.0505,4.0482,4.0419,4.0409,4.0444,4.0442,4.0357,4.0348,4.034,4.0311,4.0306,4.0302,4.03,4.0218,4.0218,4.0218,0,0,0,0,0,0,4.066,4.0648,4.0538,4.0583,4.0568,4.0515,4.0489,4.048,4.0461,4.0408,4.0398,4.0435,4.0356,4.0346,4.031,4.0307,4.0301,4.0297,4.0218,4.0218,4.0218,4.0253,0,0,0,0,0,0,4.0665,4.065,4.064,4.0583,4.0566,4.0509,4.0489,4.0478,4.0455,4.0451,4.0397,4.0387,4.0355,4.0316,4.0307,4.0302,4.0294,4.0218,4.0218,4.0218,4.0252,4.0255,4.0257,0,0,0,0,0,4.067,4.0655,4.064,4.0628,4.0553,4.0509,4.0499,4.0462,4.0455,4.0445,4.0411,4.0389,4.0309,4.0313,4.0302,4.0296,4.0218,4.0218,4.0218,4.0251,4.0254,4.0257,0,0,0,0,0,0,4.0714,4.0646,4.063,4.0595,4.0558,4.0501,4.0488,4.0466,4.0431,4.0429,4.0385,4.0373,4.0342,4.0315,4.0321,4.0273,4.0261,4.0259,4.0291,4.0293,4.0295,4.0302,4.0291,0,0,0,0,0,4.0719,4.0688,4.0632,4.0607,4.0589,4.0542,4.0521,4.0495,4.0456,4.044,4.0403,4.0366,4.0332,4.0311,4.0277,4.0248,4.0236,4.0239,4.0241,4.0243,4.0242,4.0225,4.0226,4.0217,4.0217,4.0217,0,0,4.0731,4.069,4.0673,4.0615,4.0583,4.0553,4.0529,4.0498,4.0475,4.0435,4.04,4.0372,4.0327,4.0295,4.0279,4.0272,4.0241,4.0243,4.0245,4.0243,4.0225,4.0226,4.0227,4.0217,4.0217,4.0217,0,0,4.0736,4.0702,4.0678,4.0646,4.0598,4.0567,4.0561,4.0507,4.0486,4.045,4.0419,4.0392,4.0335,4.0305,4.0282,4.0277,4.0256,4.0267,4.0278,4.0262,4.0263,4.0263,4.0262,4.0262,4.0266,4.0266,4.0266,0,4.0756,4.0709,4.0668,4.0639,4.0614,4.0576,4.0551,4.0523,4.0467,4.0451,4.0444,4.0372,4.0339,4.03,4.0298,4.0281,4.0274,4.0273,4.0266,4.0266,4.0266,4.0264,4.0263,4.0268,4.0267,4.0267,4.0267,0,4.0736,4.0704,4.069,4.0636,4.061,4.0583,4.0539,4.0518,4.0495,4.0464,4.0428,4.0388,4.0345,4.0334,4.0311,4.0291,4.0289,4.0274,4.0262,4.0269,4.0266,4.0265,4.027,4.0269,4.0269,4.0268,0,0,4.0766,4.069,4.0686,4.0661,4.0605,4.058,4.0552,4.0509,4.0492,4.0455,4.043,4.0383,4.037,4.0344,4.0318,4.0304,4.0302,4.0291,4.0289,4.0295,4.0279,4.029,4.0289,4.0288,4.0288,4.0287,4.0282,0,4.0764,4.0711,4.0674,4.0635,4.0605,4.0569,4.0544,4.0508,4.0479,4.045,4.0419,4.0386,4.037,4.0355,4.0339,4.0306,4.0298,4.0306,4.0266,4.0265,4.0278,4.0288,4.0299,4.0297,4.0281,4.0281,4.0281,0,4.0754,4.0717,4.0676,4.0623,4.0609,4.0588,4.0546,4.0518,4.0477,4.0457,4.0428,4.0401,4.0371,4.0362,4.032,4.0326,4.0307,4.0289,4.0288,4.0283,4.0273,4.0284,4.0295,4.0295,4.0279,4.0279,4.0279,0,4.0781,4.072,4.0688,4.0668,4.0606,4.0592,4.0565,4.0524,4.0501,4.0465,4.0449,4.0411,4.039,4.0361,4.0325,4.0321,4.0287,4.0274,4.027,4.0271,4.0265,4.0266,4.0274,4.0253,4.0253,4.0253,4.0253,0,4.0782,4.0758,4.0699,4.0679,4.0651,4.0609,4.0583,4.0554,4.0517,4.0492,4.0458,4.0435,4.0388,4.036,4.0331,4.0302,4.0292,4.0276,4.0269,4.0279,4.0281,4.0267,4.0266,4.0253,4.0253,4.0253,4.0253,0,4.0807,4.0766,4.0728,4.0673,4.0658,4.064,4.0593,4.0573,4.0542,4.051,4.05,4.0453,4.0417,4.0378,4.033,4.0311,4.0283,4.0273,4.0297,4.0293,4.0291,4.0292,4.029,4.0288,4.0269,4.0269,4.0269,0,4.081,4.0791,4.0733,4.0713,4.0687,4.0656,4.0632,4.059,4.0567,4.0518,4.0504,4.0466,4.0433,4.0379,4.0341,4.0304,4.0293,4.0294,4.0287,4.0298,4.0293,4.0295,4.0293,4.0297,4.0297,4.0298,4.0298,0,4.0821,4.0802,4.0768,4.0728,4.07,4.0667,4.0632,4.0618,4.0569,4.0545,4.0508,4.0482,4.0433,4.0396,4.0355,4.0329,4.0306,4.03,4.0297,4.0308,4.0323,4.0315,4.0303,4.0301,4.03,4.03,4.03,4.03,4.0836,4.0817,4.0773,4.0737,4.0706,4.0674,4.0653,4.0619,4.0587,4.0543,4.052,4.0484,4.0444,4.0385,4.036,4.0332,4.0324,4.032,4.0319,4.0319,4.0322,4.0327,4.0324,4.0324,4.0324,4.0324,4.0323,0,4.0845,4.0815,4.0782,4.0734,4.0706,4.0685,4.0646,4.0624,4.0592,4.0556,4.0524,4.0482,4.0446,4.0405,4.0367,4.0352,4.034,4.0343,4.0344,4.0339,4.033,4.0337,4.0353,4.0353,4.0353,4.0353,4.0353,4.0353,4.0847,4.0814,4.079,4.0742,4.0712,4.0675,4.0654,4.0625,4.0596,4.055,4.0519,4.0492,4.0454,4.0413,4.038,4.0369,4.0356,4.0363,4.0349,4.0342,4.0339,4.0337,4.0343,4.036,4.036,4.0359,4.0359,4.0359]}]]